Simultaneous Nadir Overpasses (SNOs) Predictions

Prediction of SNOs between AQUA and NPP Satellite Orbit:

Table of predicted SNOs for the next 14.0 days since TLE Epoch: 11/9/2024
Index Date (AQUA) Time (AQUA) Lat,Lon (AQUA) SZA (AQUA ) Date (NPP) Time (NPP) Lat,Lon (NPP) SZA (NPP ) Distance(km) Time Diff (sec)
1 11/10/2024 03:20:43 -81.29,-122.32 76.18 11/10/2024 03:20:26 -81.30,-122.30 76.17 0.41 17
2 11/10/2024 04:10:02 81.30, 45.49 103.82 11/10/2024 04:11:10 81.30, 45.47 103.79 0.37 68
3 11/12/2024 14:32:43 -81.30, 69.87 75.52 11/12/2024 14:32:49 -81.30, 69.92 75.53 0.91 6
4 11/15/2024 00:55:19 81.30, 94.24 105.12 11/15/2024 00:54:28 81.30, 94.35 105.13 1.88 51
5 11/15/2024 01:44:40 -81.29, -98.20 74.87 11/15/2024 01:45:12 -81.30, -98.03 74.91 2.85 32
6 11/17/2024 12:07:12 81.30, -73.69 105.73 11/17/2024 12:06:51 81.30, -73.79 105.75 1.74 21
7 11/17/2024 12:56:33 -81.29, 93.88 74.26 11/17/2024 12:57:35 -81.30, 93.85 74.29 0.81 62
8 11/19/2024 22:29:41 -81.30, -49.13 73.72 11/19/2024 22:28:27 -81.30, -48.99 73.70 2.39 74
9 11/19/2024 23:19:00 81.30, 118.53 106.29 11/19/2024 23:19:11 81.30, 118.69 106.26 2.65 11
10 11/22/2024 09:41:27 -81.30, 142.87 73.16 11/22/2024 09:40:49 -81.30, 142.95 73.15 1.29 38



Historial Predications of SNOs between AQUA and NPP
